STARLINK-1326 (45575 NORAD) Tracking and Keplerian Element Data

This shows tracking and keplerian element data for the satellite.

Feedback or suggestion? Click here.




ElementValue
Catalog45575
NameSTARLINK-1326
Epoch Orbit1225
Epoch Day187.50002315
Epoch Year2020
RAAN37.2426
Inclination52.9991
Eccentricity0.0001346
Argument of Perigee25.5794
Mean Anonmoly316.7078
Mean Motion15.62722922
Decay Rate0.000588
L11 45575U 20025AW 20187.50002315 .00058800 00000-0 64409-3 0 9996
L22 45575 52.9991 37.2426 0001346 25.5794 316.7078 15.62722922 12253

Live tracking and technical data element details for STARLINK-1326 (NORAD 45575). STARLINK-1326 can be tracked NOW for your location showing map with azimuth and elevation plus other details from your city location.

Track the satellite on the map from your city or location and see movement details for azimuth, elevation, latitude, longitude, range, height, and movement on the map or in text.







IsCatalogInMostPopularTable: catalog: 45575, numindb: 15
Update: records affected: 1



GetName: 45575 STARLINK-1326

Hit Count: updated at: Mon, 06 Jul 2020 06:08:59 GMT